THOR ABLESTAR DEB, 1511

Orbit data source: Space-Track

THOR ABLESTAR DEB, 1511 is space debris in LEO originally from a launch on Fri, 13 Aug 1965 UTC launched from the Air Force Western Test Range (AFWTR). Debris objects in space refer to the collection of defunct objects orbiting the Earth. Examples of debris include non-operational satellites, rocket bodies, and fragments generated from explosions, collisions, or faulty payload assembly.

Loading next visibility...
Identifier
1511, 1965-065D
Orbit
LEO
Country
Flag of USUS
Related business
Manufacturer
NRL
Mission
Spacecraft
Bus & Motor
Unknown
Mass
Unknown
Launch date (UTC)
1965-08-13 (61 years ago)
Launch vehicle
Unknown
Launch site
Air Force Western Test Range (AFWTR)
Object type
Payload
Rocket body
Debris
Shape & HBR
Unknown shape, 0.6 m
Radar Cross Section
Medium (>0.1 m² and <1 m²)

Expand to show TLE details & history
Last TLE update: 5 days ago

TLE from 5 days ago
0 THOR ABLESTAR DEB
1 01511U 65065D   26155.14446801  .00000059  00000-0  10075-3 0  9997
2 01511  89.9994 211.4860 0066854 242.9143 170.6307 13.34200936958944
Epoch: 2026-06-04T03:28Z
TLE epoch observation values (Epoch: 2026-06-04T03:28:02.036Z)
Latitude
53.76131°
Longitude
-93.11462°
Altitude
1,189.397 km
Speed
7.24 km/s
True Right ascension
14h 05m 56s
True Declination
53° 36' 24"
Sunlit
Object was in daylight at epoch
Visualization orbit readout
Latitude
Unknown
Longitude
Unknown
Altitude
Unknown
Speed
Unknown
Apparent Right ascension
Unknown
Apparent Declination
Unknown
Sunlit
N/A
Visualization observer readout
Local Sidereal Time
04:09:29
Azimuth
Unknown
Elevation
Unknown
Doppler factor
Unknown
Orbital elements
Apogee altitude
1,178.214 km
Perigee altitude
1,077.85 km
Semi-major axis
7,506.169 km
Eccentricity
0.00669
Inclination
89.9994°
RAAN
211.486°
Arg. of periapsis
242.9143°
True anomaly
170.7544°
Mean anomaly
170.6307°
Eccentric anomaly
170.69265°
Mean motion
3.33746 °/min
Orbital period
107.87 mins
BSTAR
0.00010075
Loading maneuver chart data...
Computing Atmospheric mass density...

Documentation

Showing up to 5 results
|